Preview of NWS' New Version of Forecast
This preview is not operational and should not be used for support decisions.

Regional Weather Roundup (RWR)

Issued by Gray - Portland, ME (GYX)

                            
000
ASUS41 KGYX 201805
RWRGYX
WEATHER ROUNDUP FOR MAINE AND NEW HAMPSHIRE
NATIONAL WEATHER SERVICE GRAY ME
200 PM EDT SUN MAY 20 2018

MEZ002-005-006-010-012-015-018-020-021-024-026-027-029-201900-
MAINE
  
CITY           SKY/WX    TMP DP  RH WIND       PRES   REMARKS
PORTLAND       CLOUDY    73  64  73 W9G17     29.80R                  
6HR MIN TEMP:  57; 6HR MAX TEMP:  73;                                

SANFORD        CLOUDY    73  65  75 W7        29.82R                  
BAR HARBOR     LGT RAIN  62  61  96 SW3       29.79R                  
WISCASSET      CLOUDY    67  65  93 E3        29.81R                  
6HR MIN TEMP:  55; 6HR MAX TEMP:  69; 6HR PCP: TRACE;                

ROCKLAND       CLOUDY    64  62  93 SW5       29.79S                  
FRYEBURG       FAIR      75  57  53 NW14G20   29.82R                  
6HR MIN TEMP:  63; 6HR MAX TEMP:  76;                                

LEWISTONAUBURN PTSUNNY   72  61  68 NW10      29.81S                  
AUGUSTA        FAIR      69  61  75 VRB6      29.79F                  
6HR MIN TEMP:  53; 6HR MAX TEMP:  69; 6HR PCP: TRACE;                

WATERVILLE     PTSUNNY   68  61  78 SW5       29.77S                  
BANGOR         PTSUNNY   65  59  81 VRB3      29.79S                  
6HR MIN TEMP:  55; 6HR MAX TEMP:  65; 6HR PCP: TRACE;                

GREENVILLE       N/A     60  53  77 NW17G25   29.79R                  
6HR MIN TEMP:  47; 6HR MAX TEMP:  63; 6HR PCP:  0.03;                

MILLINOCKET    CLOUDY    65  54  67 W12       29.78R                  
6HR MIN TEMP:  49; 6HR MAX TEMP:  65; 6HR PCP:  0.04;                

HOULTON        CLOUDY    63  56  78 W7        29.73R                  
6HR MIN TEMP:  50; 6HR MAX TEMP:  63; 6HR PCP:  0.03;                

PRESQUE ISLE   CLOUDY    62  50  64 NW16G22   29.74R                  
6HR MIN TEMP:  51; 6HR MAX TEMP:  63; 6HR PCP:  0.02;                

FRENCHVILLE    FAIR      62  43  49 N21G30    29.75R                  
6HR MIN TEMP:  48; 6HR MAX TEMP:  63; 6HR PCP: TRACE;                

CARIBOU        FAIR      63  51  65 NW17G25   29.73R                  
6HR MIN TEMP:  50; 6HR MAX TEMP:  65; 6HR PCP:  0.05;                

$$

NHZ002-005-008-009-011-012-014-201900-
NEW HAMPSHIRE
  
CITY           SKY/WX    TMP DP  RH WIND       PRES   REMARKS
PORTSMOUTH     CLOUDY    75  64  67 W10G20    29.80R                  
ROCHESTER      CLOUDY    73  65  75 VRB6      29.81S                  
6HR MIN TEMP:  56; 6HR MAX TEMP:  74; 6HR PCP: TRACE;                

NASHUA         CLOUDY    75  67  76 W6        29.84                   
MANCHESTER     CLOUDY    76  65  68 W6        29.83R                  
6HR MIN TEMP:  65; 6HR MAX TEMP:  78; 6HR PCP:  0.01;                

CONCORD        LGT RAIN  72  65  78 W5        29.84R                  
6HR MIN TEMP:  59; 6HR MAX TEMP:  76; 6HR PCP:  0.01;                

LACONIA        LGT RAIN  67  62  84 NW7       29.86R                  
PLYMOUTH       CLOUDY    68  59  74 W5        29.86S                  
BERLIN         PTSUNNY   68  58  70 VRB7      29.86R                  
6HR MIN TEMP:  62; 6HR MAX TEMP:  68; 6HR PCP:  0.04;                

WHITEFIELD     CLOUDY    65  58  78 W7        29.88R                  
6HR MIN TEMP:  61; 6HR MAX TEMP:  66; 6HR PCP:  0.09;                

JAFFREY        LGT RAIN  69  66  90 W8        29.88S                  
6HR MIN TEMP:  62; 6HR MAX TEMP:  70; 6HR PCP: TRACE;                

KEENE          CLOUDY    70  67  90 SW3       29.87S                  
LEBANON        CLOUDY    68  60  75 N5        29.87R                  
6HR MIN TEMP:  59; 6HR MAX TEMP:  68; 6HR PCP:  0.07;                

MT WASHINGTON  NOT AVBL                                               
$$

VTZ005-007-008-201900-
VERMONT
  
CITY           SKY/WX    TMP DP  RH WIND       PRES   REMARKS
ST JOHNSBURY     N/A     64  59  83 MISG      29.88R                  
MONTPELIER     CLOUDY    62  56  80 NW15G29   29.96R                  
BURLINGTON     CLOUDY    65  55  70 N7        29.94R                  
$$

MAZ007-012-024-CTZ003-RIZ002-NYZ038-NYZ072-201900-
SOUTHERN NEW ENGLAND AND NY
  
CITY           SKY/WX    TMP DP  RH WIND       PRES   REMARKS
BOSTON         FAIR      80  65  59 W14       29.82F                  
WORCESTER      LGT RAIN  72  64  76 W16G22    29.88S                  
NANTUCKET      FOG       59  59 100 SW21      29.93F VSB 3/4          
PROVIDENCE     CLOUDY    76  66  71 SW15      29.88S                  
HARTFORD       PTSUNNY   79  64  60 SW7       29.86F                  
ALBANY         PTSUNNY   74  61  63 W18G26    29.91R                  
NEW YORK CITY  PTSUNNY   81  62  52 W15       29.92R                  
$$

ANZ081-ANZ082-ANZ150-NHZ014-MEZ023>029-201900-
COASTAL MARINE OBSERVATIONS
  
STATION/POSITION TIME  TEMP    WIND        PRES    WAVE
                       AIR SEA DIR/SP/G            HT/PER
                 (UTC) (F)     (DEG/KT/KT) (MB)    (FT/S)
MOUNT DESERT ROC 1800   49     220/ 17/ 18 1009.1S
MATINICUS ROCK   1700   50     270/ 11/ 11 1008.9R
ISLE OF SHOALS   1700   74     260/ 16/ 17 1008.8F
JEFFREYS LEDGE   1736      50                N/A     4/ 7
CASHES LEDGE BUO 1750   54 49              1009.2F   5/ 6
$$

.............KEY..............
   WCI - WIND CHILL
   TC  - TEMPERATURE IN CELSIUS
   VSB - VISIBILITY IN MILES
   HX  - HEAT INDEX
   FAIR- INDICATES FEW OR NO CLOUDS BELOW 12,000 FT, WITH NO 
         SIGNIFICANT WEATHER AND/OR OBSTRUCTIONS TO VISIBILITY.